Погода в Береговом

Россия / Республика Крым     44°24′19″N   33°53′33″E
темп.,
°C
ветер,
м/с
пор.,
м/с
влажн.,
%
обл.,
%
осадки,
мм/ч
давл.,
гПа
погр.,
м
24 июля, сб
сб2400:00+15с22720 0.1 101430
03:00+14с22650 0.1 101432
06:00+15с22640 0.0 101428
09:00+21ссз01420 0.0 10141294
12:00+23ю134213 0.0 10141624
15:00+24юз234223 0.0 10131427
18:00+22ююв225111 0.0 10141078
21:00+17ссв12680 0.0 101525
25 июля, вс
вс2500:00+17ссв22570 0.0 101623
03:00+16ссв22490 0.0 101636
06:00+16ссв22590 0.0 101637
09:00+24св23370 0.0 1016934
12:00+27вюв233610 0.0 10162281
15:00+26юв343841 0.0 10152189
18:00+25в234737 0.0 1016731
21:00+20с226562 0.0 101725
26 июля, пн
пн2600:00+20ссв225586 0.0 101726
03:00+19ссв335099 0.0 101731
06:00+19ссв33635 0.0 101744
09:00+25св36456 0.0 10161412
12:00+28св343991 0.0 10162200
15:00+28ссв244069 0.0 10161763
18:00+26всв24450 0.0 10161080
21:00+20с22600 0.0 101728
27 июля, вт
вт2700:00+19с33640 0.0 101845
03:00+18с33800 0.0 101748
06:00+19с33754 0.0 101836
09:00+26с22495 0.0 1018742
12:00+29ссз144054 0.0 10172113
15:00+26ссв134996 0.0 10171111
18:00+25св335474 0.0 1018605
21:00+21ссв22620 0.0 101820
28 июля, ср
ср2800:00+20ссв23530 0.0 101935
03:00+19св34500 0.0 101954
06:00+19св23580 0.0 101939
09:00+26в23350 0.0 1019870
12:00+28вюв333216 0.0 10182289
15:00+28ссв143672 0.0 10172079
18:00+26ссз12387 0.0 10171570
21:00+21с12560 0.0 101814